CZ-6A DEB, 54881

Orbit data source: Space-Track

CZ-6A DEB, 54881 is space debris in SSO originally from a launch on Fri, 11 Nov 2022 UTC launched from the Taiyaun Space Center, China (TSC). Debris objects in space refer to the collection of defunct objects orbiting the Earth. Examples of debris include non-operational satellites, rocket bodies, and fragments generated from explosions, collisions, or faulty payload assembly.

Loading next visibility...
Identifier
54881, 2022-151PS
Orbit
SSO
Country
Flag of CNCN / PRC
Related business
Manufacturer
SAST
Mission
Spacecraft
Bus & Motor
Unknown
Mass
Unknown
Launch date (UTC)
2022-11-11 (4 years ago)
Launch vehicle
Unknown
Launch site
Taiyaun Space Center, China (TSC)
Object type
Payload
Rocket body
Debris
Shape & HBR
Unknown shape, 0.1 m
Radar Cross Section
Small (<0.1 m²)

Expand to show TLE details & history
Last TLE update: 8 hours ago

TLE from 8 hours ago
0 CZ-6A DEB
1 54881U 22151PS  26236.53900756  .00007355  00000-0  11696-2 0  9996
2 54881  98.4036 269.8016 0089341  36.4897 324.2351 14.69695188198894
Epoch: 2026-08-24T12:56Z
TLE epoch observation values (Epoch: 2026-08-24T12:56:10.253Z)
Latitude
-0.00002°
Longitude
102.93962°
Altitude
614.18 km
Speed
7.579 km/s
True Right ascension
17h 59m 12s
True Declination
0° 00' 00"
Sunlit
Object was in full shadow at epoch
Visualization orbit readout
Latitude
Unknown
Longitude
Unknown
Altitude
Unknown
Speed
Unknown
Apparent Right ascension
Unknown
Apparent Declination
Unknown
Sunlit
N/A
Visualization observer readout
Local Sidereal Time
12:10:05
Azimuth
Unknown
Elevation
Unknown
Doppler factor
Unknown
Orbital elements
Apogee altitude
721.99 km
Perigee altitude
596.247 km
Semi-major axis
7,037.256 km
Eccentricity
0.00893
Inclination
98.4036°
RAAN
269.8016°
Arg. of periapsis
36.4897°
True anomaly
323.63129°
Mean anomaly
324.2351°
Eccentric anomaly
323.93374°
Mean motion
3.67653 °/min
Orbital period
97.92 mins
BSTAR
0.0011696
Loading maneuver chart data...
Computing Atmospheric mass density...
Loading historical data...
Loading historical data...
Loading historical data...
Loading historical data...
Loading historical data...
Loading historical data...
Loading historical data...

Documentation

Showing up to 5 results
|